Weather Roundup
Issued by NWS Chicago, IL

Home | Current Version | Previous Version | Graphics & Text | Print | Product List | Glossary On
Versions: 1 2 3 4 5 6 7 8 9 10 11 12 13 14 15 16 17 18 19 20 21 22 23 24 25 26 27 28 29 30 31 32 33 34 35 36 37 38 39 40 41 42 43 44 45 46 47 48 49 50
000
NZUS59 KLOT 261200
HRRLOT

CHICAGO AREA WEATHER ROUNDUP
NATIONAL WEATHER SERVICE CHICAGO/ROMEOVILLE IL
600 AM CST MON JAN 26 2015

NOTE: "FAIR" INDICATES FEW OR NO CLOUDS BELOW 12,000 FEET WITH NO
SIGNIFICANT WEATHER AND/OR OBSTRUCTIONS TO VISIBILITY.

* THESE STATIONS ARE NOT UNDER NWS QUALITY CONTROL. THEY ALSO MAY NOT
  REPORT WEATHER SUCH AS PRECIPITATION OR FOG.

ILZ005-006-012>014-019>023-261300-
NORTHEAST ILLINOIS

CITY           SKY/WX    TMP DP  RH WIND       PRES   REMARKS
OHARE          MOCLDY    16  12  84 NW6       29.95F WCI   7
6HR MIN TEMP:  15; 6HR MAX TEMP:  24;

MIDWAY         PTCLDY    23  16  74 N3        29.96F
6HR MIN TEMP:  22; 6HR MAX TEMP:  26;

AURORA         PTCLDY    14  10  84 CALM      29.98R
6HR MIN TEMP:  13; 6HR MAX TEMP:  18;

WAUKEGAN       CLOUDY    17  13  84 CALM      29.95F
6HR MIN TEMP:  17; 6HR MAX TEMP:  23;

DUPAGE AIRPORT PTCLDY    14  10  84 NW6       29.96S WCI   5
6HR MIN TEMP:  13; 6HR MAX TEMP:  19;

WHEELING       PTCLDY    16  12  84 NW3       29.98S
6HR MIN TEMP:  16; 6HR MAX TEMP:  24;

NORTHERLY IS     N/A     23  15  71 N5          N/A  WCI  17
$$

WIZ051-052-058>065-066-070>072-261300-
SOUTHEAST WISCONSIN

CITY           SKY/WX    TMP DP  RH WIND       PRES   REMARKS
MILWAUKEE      CLOUDY    18  11  74 CALM      29.95S
6HR MIN TEMP:  17; 6HR MAX TEMP:  23;

KENOSHA*       MOCLDY    15  12  88 W5        29.95F WCI   8
RACINE*        MOCLDY    17  12  80 CALM      29.97F
WAUKESHA       PTCLDY    10   9  92 CALM      29.95F
$$

INZ001>003-010>013-019-020-261300-
NORTHWEST INDIANA

CITY           SKY/WX    TMP DP  RH WIND       PRES   REMARKS
GARY*          CLEAR     18   9  68 SE10      29.98S WCI   6
MICHIGAN CITY* NOT AVBL
RENSSELAER*    NOT AVBL
$$

LMZ740>746-261300-
SOUTHERN LAKE MICHIGAN

STATION/POSITION TIME  SKY/WX   TEMP WIND        PRES    VSBY
                                AIR  DIR/SP/G
                 (UTC)          (F)  (DEG/KT/KT) (MB)    (MI)
HARRISON CRIB    1100            23  360/  3/  6   N/A
BURNHAM HARBOR   1200            22   20/  4/  6   N/A
CALUMET HARBOR   1100            22   20/  4/  6   N/A
BURNS HARBOR     NOT AVBL
MICHIGAN CITY    1100            17   60/  6/  8   N/A
$$

ABBREVIATIONS USED IN REMARKS
   TC - TEMPERATURE IN CELSIUS
  WCI - WIND CHILL INDEX
   HX - HEAT INDEX
  VSB - VISIBILITY
$$


USA.gov is the U.S. government's official web portal to all federal, state and local government web resources and services.